Welcome to the New NWS' Forecast!
Most changes are behind the scenes, but click here for differences you might notice.
Latest weather observations around

Missoula, Missoula International Airport (KMSO)

Using English Units (Switch to International System of Units)
Date/ Time (MDT) Wind (mph) Vis. (mi) Weather Sky Cond. Temp (°F) Rel. Humidity Wind Chill (°F) Heat Index (°F) Pressure Precip. (in)
Air Dwpt 6 hour Altimeter (inHg) Sea level (inHg) 1 hr 3 hr 6 hr
Max Min
Aug 16 03:53 Calm 8 Clear CLR 56 38     51%     30.06 29.99      
Aug 16 02:53 Calm 8 Clear CLR 58 38     47%     30.04 29.98      
Aug 16 01:53 Calm 8 Clear CLR 60 39     46%     30.04 29.98      
Aug 16 00:53 Calm 9 Clear CLR 61 37     41%     30.03 29.97      
Aug 15 23:53 Calm 8 Clear CLR 63 39     41%     30.01 29.96     0
Aug 15 22:53 Calm 8 Clear CLR 66 39     37%     30 29.95      
Aug 15 21:53 NNE 6 8 Clear CLR 71 39     31%   69 29.98 29.92      
Aug 15 20:53 WNW 5 6 Haze CLR 77 40     26%   76 29.95 29.89 0 0  
Aug 15 19:53 N 7 7 Clear CLR 86 38     18%   83 29.93 29.87      
Aug 15 18:53 Calm 8 Clear CLR 89 36     15%   85 29.93 29.87      
Aug 15 17:53 S 8 8 Clear CLR 91 37     15%   87 29.93 29.86      
Aug 15 16:53 SSE 5 7 Clear CLR 89 38     17%   85 29.94 29.87      
Aug 15 15:53 6 7 Clear CLR 88 40     19%   84 29.96 29.89      
Aug 15 14:53 WSW 7 7 Clear CLR 87 40     19%   84 29.98 29.91      
Aug 15 13:53 3 7 Clear CLR 82 39     22%   80 30 29.94      
Aug 15 12:53 3 7 Clear CLR 77 38     24%   76 30.02 29.97      
Aug 15 11:53 Calm 7 Clear CLR 72 37     28%   70 30.05 30      
Aug 15 10:53 3 7 Clear CLR 68 37     32%     30.06 30.01      
Aug 15 09:53 Calm 5 Haze CLR 62 40     44%     30.07 30.03      
Aug 15 08:53 Calm 5 Haze CLR 57 41     55%     30.08 30.03      
Aug 15 07:53 Calm 5 Haze CLR 52 40     63%     30.07 30.02      
Aug 15 06:53 Calm 5 Haze CLR 51 40     65%     30.05 30      
Aug 15 05:53 SSE 3 7 Clear CLR 51 39     63%     30.03 29.97      
Aug 15 04:53 ESE 3 7 Clear CLR 55 38     52%     30.02 29.96      
Aug 15 03:53 Calm 7 Clear CLR 53 38     56%     30.01 29.95      
Aug 15 02:53 SE 5 7 Clear CLR 59 39     47%     29.99 29.93      
Aug 15 01:53 Calm 6 Haze CLR 57 40     53%     29.99 29.93      
Aug 15 00:53 Calm 6 Haze CLR 61 39     44%     29.98 29.92      
Aug 14 23:53 Calm 6 Haze CLR 61 39     44%     29.96 29.91      
Aug 14 22:53 NNW 5 6 Haze CLR 66 40     38%     29.95 29.9      
Aug 14 21:53 NNW 6 6 Haze CLR 70 41     35%     29.94 29.89      
Aug 14 20:53 W 3 7 Clear CLR 76 41     29%   75 29.93 29.88      
Aug 14 19:53 N 8 5 Haze CLR 81 40     23%   80 29.92 29.87      
Aug 14 18:53 N 10 6 Haze CLR 85 39     20%   82 29.93 29.88      
Aug 14 17:53 N 10 6 Haze CLR 86 38     18%   83 29.93 29.88     0
Aug 14 16:53 NNE 8 6 Haze CLR 86 38     18%   83 29.95 29.89      
Aug 14 15:53 NW 8 7 Clear CLR 87 32     14%   83 29.97 29.91      
Aug 14 14:53 Calm 6 Haze CLR 83 35     18%   80 29.99 29.93 0 0  
Aug 14 13:53 3 6 Haze CLR 81 42     25%   80 30.01 29.96      
Aug 14 12:53 Calm 6 Haze CLR 76 41     29%   75 30.03 29.98      
Aug 14 11:53 3 7 Clear CLR 71 41     34%   69 30.06 30.01      
Aug 14 10:53 Calm 8 Clear CLR 65 40     40%     30.08 30.03      
Aug 14 09:53 SE 5 7 Clear CLR 61 41     48%     30.08 30.04      
Aug 14 08:53 Calm 7 Clear CLR 56 41     57%     30.09 30.05      
Aug 14 07:53 Calm 7 Clear CLR 52 40     63%     30.08 30.04      
Aug 14 06:53 Calm 6 Haze CLR 49 38     66%     30.07 30.03      
Aug 14 04:53 Calm 8 Clear CLR 51 38     61%     30.05 30      
Aug 14 03:53 Calm 8 Clear CLR 52 38     59%     30.05 29.99      
Aug 14 02:53 N 3 7 Clear CLR 54 38     55%     30.04 29.99      
Aug 14 01:53 Calm 8 Clear CLR 56 38     51%     30.05 29.99      
Aug 14 00:53 Calm 8 Clear CLR 57 37     47%     30.04 30      
Aug 13 23:53 Calm 8 Clear CLR 61 37     41%     30.03 29.98      
Aug 13 21:53 WNW 7 8 Clear CLR 68 37     32%     30.01 29.97      
Aug 13 19:53   8 Clear CLR 77 39     26%   76 29.99 29.95      
Aug 13 18:53   8 Clear CLR 80 40     24%   79 29.99 29.95      
Aug 13 17:53 N 10 9 Clear CLR 83 39     21%   81 30 29.94      
Aug 13 16:53 N 10 9 Clear CLR 84 40     21%   81 30 29.95      
Aug 13 15:53 7 10 Clear CLR 83 38     20%   81 30.02 29.97      
Aug 13 14:53 3 10 Clear CLR 81 40     23%   80 30.04 29.98      
Aug 13 12:53 3 10 Clear CLR 75 42     31%   74 30.09 30.03      
Aug 13 11:53 Calm 10 Clear CLR 69 41     36%     30.12 30.06      
Aug 13 10:53 Calm 10 Clear CLR 64 41     43%     30.13 30.09      
Aug 13 09:53 Calm 10 Clear CLR 59 41     51%     30.14 30.1      
Aug 13 08:53 W 3 10 Clear CLR 56 42     60%     30.15 30.11      
Aug 13 07:53 Calm 10 Clear CLR 52 42     69%     30.16 30.12      
Aug 13 06:53 Calm 10 Clear CLR 49 39     69%     30.15 30.1      
Aug 13 05:53 NNE 3 10 Clear CLR 50 39     66%     30.14 30.09      
Aug 13 04:53 Calm 10 Clear CLR 52 39     61%     30.14 30.09      
May 14 10:53 S 3 10 Clear CLR 58 42     55%     30.13 30.11      
May 14 06:53 SSE 3 10 Clear CLR 42 37     82% 40   30.14 30.14      
May 12 22:53 Calm 10 Clear CLR 52 38     59%     29.97 29.97      
May 12 18:53 N 9 10 Clear CLR 67 38     34%     29.93 29.93      
May 11 17:53   10 Mostly Clear FEW060 55 44     66%     30.05 30.06     0
Jun 11 20:53   10 Clear   64 35     34%     29.82 29.8      
Jun 11 14:53 W 5 10 Clear CLR 65 28     25%     29.89 29.9      
Jun 10 12:13 5 6 Light Rain FEW035 BKN043 OVC055 52 41     66%     29.75   0    
Jun 10 08:53 S 7 10 Clear CLR 51 41     68%     29.75 29.74      
Jun 09 13:53 7 10 Light Rain FEW026 SCT037 BKN047 57 48     72%     29.8 29.79 0    
Jun 08 21:53   10 Mostly Clear FEW120 64 51     63%     29.75 29.7      
Jun 07 23:53 E 10 10 Clear CLR 70 54     57%     29.84 29.77      
Jun 07 09:53 Calm 10 Clear CLR 66 52     61%     29.99 29.94      
Jun 06 01:53 N 5 10 Clear CLR 47 41     80% 45   30.17 30.15